Regional Weather Roundup
Issued by NWS

Home | Current Version | Previous Version | Graphics & Text | Print | Product List | Glossary Off
Versions: 1 2 3 4 5 6 7 8 9 10 11 12 13 14 15 16 17 18 19 20 21 22 23 24 25 26 27 28 29 30 31 32 33 34 35 36 37 38 39 40 41 42 43 44 45 46 47 48 49 50

000
ASUS43 KDTX 192110
RWRMI
MICHIGAN HOURLY REGIONAL WEATHER ROUNDUP
NATIONAL WEATHER SERVICE DETROIT/PONTIAC MI
500 PM EDT THU APR 19 2018

NOTE: "FAIR" INDICATES FEW OR NO CLOUDS BELOW 12,000 FEET WITH NO
SIGNIFICANT WEATHER AND/OR OBSTRUCTION TO VISIBILITY.

MIZ047>049-052>055-059>063-066>070-074>076-081>083-192200-
SOUTHEAST LOWER MICHIGAN

CITY           SKY/WX    TMP DP  RH WIND       PRES   REMARKS
ADRIAN         FAIR      54  20  26 N17G23    30.19R
ALMA           FAIR      49  22  33 NW17G28   30.22S
ANN ARBOR      FAIR      54  19  25 NW15G23   30.17R
BAD AXE        FAIR      44  21  39 N14G20    30.20R
CARO           FAIR      45  27  48 N8        30.20R
DETROIT CITY   FAIR      52  19  27 NW16G25   30.16R
DETROIT        FAIR      55  20  25 N16G25    30.16R
FLINT          FAIR      50  21  32 N20G28    30.18R
GROSSE ILE     FAIR      54  20  26 N18G26    30.15R
HILLSDALE      FAIR      54  19  26 NW21G26   30.19R
HOWELL         FAIR      50  18  27 N13G21    30.18R

CITY           SKY/WX    TMP DP  RH WIND       PRES   REMARKS
JACKSON        FAIR      54  17  23 W17G26    30.19R
LAMBERTVILLE   FAIR      56  21  25 NW13G21   30.17S
LANSING        FAIR      52  17  25 N17G28    30.21S
LAPEER         FAIR      47  17  30 N15G25    30.18R
MASON          FAIR      54   9  17 N18G26    30.20R
MONROE         FAIR      53  18  25 NW16G24   30.16R
MT. CLEMENS    MOSUNNY   49  24  37 N14G26    30.15R
PONTIAC        FAIR      51  19  28 NW18      30.15R
PORT HOPE        N/A     40  27  59 N6        30.19R
PORT HURON     FAIR      39  25  56 N12G18    30.20R WCI  32
TRI CITIES     FAIR      50  26  39 NW17G23   30.20S
MIDLAND        FAIR      48  25  40 NW13G24   30.20S
TROY           FAIR      52  18  26 NW14G25   30.18R
SAGINAW HB     FAIR      46  28  49 N10       30.19R
$$
MIZ043>046-050>051-056>058-064>065-071>073-077>080-192200-
SOUTHWEST LOWER MICHIGAN

CITY           SKY/WX    TMP DP  RH WIND       PRES   REMARKS
BATTLE CREEK   FAIR      54  20  26 NW13G22   30.23S
BENTON HARBOR  FAIR      41  30  65 NW10G22   30.36R
BIG RAPIDS     FAIR      47  10  21 N13G25    30.24S
COLDWATER      FAIR      54  24  32 NW13G20   30.22S
FREMONT        FAIR      46  18  31 NW17G23   30.28S
HOLLAND        FAIR      44  31  60 NW16G22   30.30S
GRAND RAPIDS   FAIR      53  26  35 NW10G24   30.24S
IONIA          FAIR      54  15  21 NW21      30.22R
KALAMAZOO      FAIR      51  31  46 W15       30.26R
LUDINGTON      FAIR      45  25  45 N9G18     30.33S
MARSHALL       FAIR      54  13  19 NW13G23   30.21S
MOUNT PLEASANT FAIR      49  21  32 NW8G20    30.22S
MUSKEGON       FAIR      48  27  44 N13       30.31R
SOUTH HAVEN    FAIR      41  31  68 NW14G22   30.33S
$$
MIZ016>042-192200-
NORTHERN LOWER MICHIGAN

CITY           SKY/WX    TMP DP  RH WIND       PRES   REMARKS
ALPENA         FAIR      43  19  38 NW20G29   30.20R
BEAVER ISLAND  FAIR      40  25  54 NW13G20   30.30R WCI  33
BELLAIRE       FAIR      43  21  41 NW9       30.29R
CADILLAC       FAIR      41  15  35 N15G24    30.25S
CHARLEVOIX     FAIR      40  26  58 NW14      30.32R WCI  32
FRANKFORT      FAIR      43  24  48 W7G18     30.33S
GAYLORD        FAIR      42  17  36 NW10G22   30.22R
GRAYLING       FAIR      42  18  38 NW16G23   30.23R
HARBOR SPRINGS FAIR      43  16  33 NW12G22   30.27R
HOUGHTON LAKE  FAIR      43  22  43 NW13G23   30.23R
MANISTEE       FAIR      43  24  47 NW10      30.33S
OSCODA         FAIR      44  15  30 N12G20    30.18S
PELLSTON       FAIR      41  20  43 NW22      30.26R
ROGERS CITY    FAIR      42  17  36 NW18G25   30.22R
TRAVERSE CITY  FAIR      44  21  40 NW10      30.29F
$$
MIZ007>008-015-192200-
EASTERN UPPER MICHIGAN

CITY           SKY/WX    TMP DP  RH WIND       PRES   REMARKS
KINROSS        FAIR      39  20  46 NW18G29   30.24R WCI  30
MACKINAC ISLAN FAIR      46  16  31 NW12      30.24S
NEWBERRY       FAIR      39  19  44 NW14G23   30.29R WCI  31
S. S. MARIE    FAIR      39  25  57 NW17G25   30.24R WCI  30
MUNISING         N/A     40  26  57 N3        30.37R
$$
MIZ004>006-011>014-085-192200-
CENTRAL UPPER MICHIGAN

CITY           SKY/WX    TMP DP  RH WIND       PRES   REMARKS
MANISTIQUE     FAIR      42  15  32 NW17G25   30.32R
ESCANABA       FAIR      52   4  14 NW13G22   30.34R
MENOMINEE      FAIR      47  18  31 SE6       30.35R
SAWYER-GWINN   SUNNY     45  14  29 NE10      30.35R
$$
MIZ001>003-009>011-084-192200-
WESTERN UPPER MICHIGAN

CITY           SKY/WX    TMP DP  RH WIND       PRES   REMARKS
IRON MOUNTAIN  FAIR      51   8  17 NW16G23   30.33S
HOUGHTON       FAIR      42  15  33 W15       30.38S
COPPER HARBOR    N/A     39  24  55 N14       30.36F WCI  31
IRONWOOD       FAIR      47  10  22 NW9       30.41S
$$

ABBREVIATIONS USED IN REMARKS
   TC - TEMPERATURE IN CELSIUS
  WCI - WIND CHILL INDEX
   HX - HEAT INDEX
  VSB - VISIBILITY





USA.gov is the U.S. government's official web portal to all federal, state and local government web resources and services.